This is the latest recevied weather packets stored in our database for station/object W5ADC. If no packets are shown the sender has not sent any weather packets the latest 10 day(s).
| Time | Temp. | Humidity | Pressure | Rain* | Wind** | Luminosity | Snow |
|---|---|---|---|---|---|---|---|
| 1777573529 | 16.67° C | 82% | 1009.9 hPa | 0 mm | - | 221 W/m² | - |
| 1777573226 | 16.11° C | 84% | 1010.3 hPa | 0 mm | - | 228 W/m² | - |
| 1777572922 | 16.11° C | 85% | 1010.3 hPa | 0 mm | - | 182 W/m² | - |
| 1777572618 | 16.11° C | 85% | 1010.2 hPa | 0 mm | - | 160 W/m² | - |
| 1777572313 | 16.11° C | 86% | 1010.2 hPa | 0 mm | - | 146 W/m² | - |
| 1777572009 | 16.11° C | 86% | 1010.1 hPa | 0 mm | - | 166 W/m² | - |
| 1777571709 | 16.11° C | 87% | 1010.2 hPa | 0 mm | - | 162 W/m² | - |
| 1777571407 | 16.11° C | 88% | 1010.9 hPa | 0 mm | - | 117 W/m² | - |
| 1777571103 | 16.11° C | 89% | 1010.8 hPa | 0 mm | - | 114 W/m² | - |
| 1777570799 | 16.11° C | 90% | 1010.9 hPa | 0 mm | - | 94 W/m² | - |
| 1777570495 | 16.11° C | 90% | 1010.7 hPa | 0 mm | - | 102 W/m² | - |
| 1777570191 | 16.11° C | 90% | 1010.7 hPa | 0 mm | - | 89 W/m² | - |
| 1777569887 | 16.11° C | 90% | 1011.1 hPa | 0 mm | - | 99 W/m² | - |
| 1777569583 | 16.11° C | 90% | 1011.4 hPa | 0 mm | - | 103 W/m² | - |
| 1777569280 | 16.11° C | 90% | 1011.1 hPa | 0 mm | - | 95 W/m² | - |
| 1777568976 | 16.11° C | 90% | 1011.4 hPa | 0 mm | - | 100 W/m² | - |
| 1777568673 | 16.11° C | 90% | 1011.8 hPa | 0 mm | - | 104 W/m² | - |
| 1777568371 | 16.67° C | 89% | 1012.2 hPa | 0 mm | - | 70 W/m² | - |
| 1777568067 | 16.67° C | 88% | 1012.8 hPa | 0 mm | - | 43 W/m² | - |
| 1777567763 | 16.67° C | 87% | 1012.6 hPa | 0 mm | - | 48 W/m² | - |
| 1777567460 | 16.67° C | 86% | 1012.4 hPa | 0 mm | - | 67 W/m² | - |
| 1777567158 | 16.67° C | 86% | 1012.4 hPa | 0 mm | - | 49 W/m² | - |
| 1777566856 | 16.67° C | 86% | 1012.9 hPa | 0 mm | - | 31 W/m² | - |
| 1777566554 | 16.67° C | 86% | 1012.7 hPa | 0 mm | - | 32 W/m² | - |
| 1777566251 | 16.67° C | 86% | 1012.5 hPa | 0 mm | - | 55 W/m² | - |
* Rain latest hour (hover to see other rain measurements)
** Current wind speed in m/s (hover to see current wind gust speed)